map of SSA home
SSA - Airport
Location
City:  Salvador, Bahia, Brazil
Name:Deputado Luís Eduardo Magalhães International Airport
Old (Alt.):Dois de Julho International Airport
ICAO:SBSV
IATA:SSA

Details
Type:Airport (Aerodrome, Airfield)
Use:Public/Civil, Military, International (customs port of entry)
Latitude:12°54'40"S (-12.910993)
Longitude:38°19'52"W (-38.331043)
Datum:WGS 1984
Elevation:64 ft (20 m)
Variation:23.46°W (WMM2015 magnetic declination)
-0.02° annual change
Runways:2
Longest:9859 × 148 ft (3005 × 45 m), paved

Time
Time Zone:UTC-3
Local Time:

Weather
METAR:SBSV 201700Z 09015KT 9999 FEW020 30/23 Q1014
TAF:SBSV 201000Z 2012/2112 09015KT 8000 SCT020 TX30/2014Z TN27/2108Z
BECMG 2021/2023 09009KT
RMK PEA

Related Locations
Nearby:
Farthest:GUM: 12234 mi / 19690 km
Agana [Antonio B. Won Pat Intl (Guam Intl)], GU, US

Find:

   beyond  
but within

Other Information
Maps:
NOTAMs:
Links:
Sources:

  
  • flag of Brazil
  • flag of Bahia
  • flag of Salvador
  

Sectional Chart

Flight Planning
at skyvector.com

Satellite Image

Google Maps Satellite view

 

Copyright © 2004-2018 Karl L. Swartz. All rights reserved.
The Great Circle Mapper name and logo are trademarks of the Great Circle Mapper.
All other trademarks mentioned herein belong to their respective owners.
Please see credits for attibutions and further copyright information.

  Follow gcmap on Facebook Follow gcmap on Twitter Follow gcmap on Google+ GCmap on LinkedIn

hCard Microformat

Geo Microformat